YAOGAN 1

导读

YAOGAN 1(遥感一号)是中国于2006年4月26日8时发射的首颗遥感卫星,主要用于国土资源勘查、环境监测与保护、城市规划、农作物估产、防灾减灾和空间科学试验等领域。它的成功发射标志着中国遥感卫星技术进入新发展阶段,为国民经济建设提供了有力的空间信息支撑,推动了中国航天遥感产业的应用发展。

Basic Information
目录编号:
29092
目录名称:
YAOGAN 1
国际标识:
2006-015A
轨道中心:
EARTH
卫星名称:
YAOGAN 1
卫星全名:
--
卫星状态:
在轨 (已飞行7443 天)
发射日期:
2006-04-26 UTC
国别 :
中国 (CN)
星等 :
--
This satellite is enrolled in the Space Conjunction Data Service (SCDS) and the current flight risk assessment level is: No High Risk
Orbit Information
数据来源 国际轨道数据 AOE轨道数据
星历时间 2026-09-11T07:34:33+0800
7小时前
查看轨道信息
2026-09-10T22:00:00+0800
17小时前
查看轨道信息
半长轴 6982.796km 6982.781km
偏心率 0.0001453 0.000135
轨道倾角 97.745° 97.745°
近地点辐角 87.664° 85.437°
升交点赤经 272.932° 272.544°
平近点角 272.474° 298.923°
近地点 603.644km 603.701km
远地点 605.674km 605.587km
周期 96.784分钟 96.784分钟
每日圈数 14.878488 14.878534
Detailed Information
使用方式:
暂无
2D Orbit Map
3D Orbit Map
Orbit Altitude Analysis Chart
Orbit Inclination Analysis Chart
Orbit Comprehensive Analysis Chart
View Comprehensive Chart
Miss Distance Evolution Trend with All Objects
Collision Probability Evolution Trend with All Objects